Home > Time Zones > World Clock > Weather > Yemen > Aden > Past weeks

Flag for Yemen Weather past 2 weeks in Aden, Yemen

Now
82 °F

Passing clouds.


Feels Like: 83 °F
Forecast: 74 / 82 °F
Wind: 18 mph from East

Location: Aden

Current Time: Jan 28, 2015 at 12:46:48 PM

Latest Report: Jan 28, 2015 at 12:00 PM


Visibility: N/A

Pressure: 30.01 "Hg

Humidity: 51%

Dew point: 63 °F

Location of AdenLocation

Historic Weather in Aden — Graph

°F

Aden temperature yesterday

Maximum temperature yesterday: 82 °F (at 1:00 PM)
Minimum temperature yesterday: 75 °F (at 6:00 AM)
Average temperature yesterday: 78 °F

Past Weeks' High & Low Weather Summary

 TemperatureHumidityPressure
High84 °F (Jan 13, 1:00 PM)74% (Jan 19, 7:00 AM)30.15 "Hg (Jan 19, 7:00 AM)
Low72 °F (Jan 18, 4:00 AM)40% (Jan 18, 3:00 PM)29.89 "Hg (Jan 19, 3:00 PM)
Average78 °F57%30.03 "Hg
* Reported Jan 13 12:00 Noon — Jan 28 12:00 Noon, Aden, Weather by CustomWeather, © 2014

Note: Actual official high and low records may vary slightly from our data, if they occured in-between our weather recording intervals... More about our weather records

Advertising

Aden weather history for previous 24 hours

 ConditionsComfort  
Time TempWeatherWind HumidityBarometerVisibility
12:00 PM
Jan 28
82 °FPassing clouds.18 mph51%30.01 "HgN/A
11:00 AM81 °FScattered clouds.18 mph54%30.04 "HgN/A
10:00 AM81 °FScattered clouds.18 mph51%30.07 "HgN/A
9:00 AM79 °FBroken clouds.16 mph58%30.07 "HgN/A
8:00 AM77 °FPartly sunny.15 mph57%30.04 "HgN/A
7:00 AM75 °FPartly sunny.13 mph57%30.04 "HgN/A
6:00 AM77 °FPassing clouds.15 mph57%30.01 "HgN/A
5:00 AM77 °FPassing clouds.15 mph61%30.01 "HgN/A
4:00 AM77 °FPassing clouds.14 mph61%30.01 "HgN/A
3:00 AM77 °FPassing clouds.13 mph61%30.01 "HgN/A
2:00 AM77 °FPassing clouds.12 mph61%30.01 "HgN/A
1:00 AM77 °FPassing clouds.13 mph57%30.04 "HgN/A
12:00 AM77 °FPassing clouds.13 mph57%30.04 "HgN/A
11:00 PM
Jan 27
77 °FPassing clouds.15 mph57%30.04 "HgN/A
10:00 PM77 °FPassing clouds.15 mph61%30.04 "HgN/A
9:00 PM77 °FPassing clouds.15 mph61%30.04 "HgN/A
8:00 PM77 °FPassing clouds.14 mph61%30.04 "HgN/A
7:00 PM77 °FPassing clouds.14 mph61%30.01 "HgN/A
6:00 PM79 °FPassing clouds.16 mph54%30.01 "HgN/A
5:00 PM79 °FScattered clouds.16 mph54%29.98 "HgN/A
4:00 PM81 °FScattered clouds.17 mph51%29.98 "HgN/A
3:00 PM81 °FPassing clouds.18 mph51%29.98 "HgN/A
2:00 PM82 °FPassing clouds.20 mph48%30.01 "HgN/A
1:00 PM82 °FScattered clouds.20 mph51%30.04 "HgN/A
12:00 PM81 °FPartly sunny.21 mph54%30.07 "HgN/A
Weather by CustomWeather, © 2014

See weather overviewHow to use our weather pages